Hourly Data Report for June 05, 2021

LONDON CS
ONTARIO
Current Station Operator: ECCC - MSC

43°02'00.000" N
81°09'00.000" W
278.00 m
6144478
71622
WSN

Download Data

Hourly Data (June 2021)
Hourly Data Report for June 5, 2021
TIME
LST
Temp Definition
°C
Dew Point Definition
°C
Rel Hum Definition
%
Precip. Amount Definition
mm

Wind Dir Definition
10's deg

Wind Spd Definition
km/h
Visibility Definition
km
Stn Press Definition
kPa
Hmdx Definition


Wind Chill Definition


Weather Definition


00:00 21.7 13.8 61 0.0       97.90 25   LegendNANA
01:00 22.1 13.3 57 0.0       97.89 25   LegendNANA
02:00 21.9 12.7 56 0.0       97.88 25   LegendNANA
03:00 22.0 12.2 54 0.0       97.89     LegendNANA
04:00 22.2 11.8 52 0.0       97.92     LegendNANA
05:00 21.7 11.6 53 0.0       97.96     LegendNANA
06:00 21.4 11.9 54 0.0       98.02     LegendNANA
07:00 22.2 12.8 55 0.0       98.05 25   LegendNANA
08:00 24.1 13.3 51 0.0       98.09 27   LegendNANA
09:00 25.5 13.2 47 0.0       98.10 28   LegendNANA
10:00 26.8 14.2 46 0.0       98.09 30   LegendNANA
11:00 27.8 13.5 41 0.0       98.09 31   LegendNANA
12:00 27.9 12.7 39 0.0       98.07 31   LegendNANA
13:00 28.6 13.6 40 0.0       98.04 32   LegendNANA
14:00 29.0 13.9 40 0.0       98.00 32   LegendNANA
15:00 29.0 14.0 40 0.0       98.00 32   LegendNANA
16:00 28.9 15.2 43 0.0       97.99 33   LegendNANA
17:00 28.3 14.6 43 0.0       97.99 32   LegendNANA
18:00 27.3 14.0 44 0.0       98.01 31   LegendNANA
19:00 26.5 15.4 50 0.0       98.04 31   LegendNANA
20:00 24.8 15.1 55 0.0       98.07 29   LegendNANA
21:00 24.1 14.7 56 0.0       98.12 28   LegendNANA
22:00 23.5 14.3 56 0.0       98.14 27   LegendNANA
23:00 22.6 14.3 59 0.0       98.16 26   LegendNANA

Notes on Data Quality.

Legend

  • E = Estimated
  • M = Missing
  • NA = Not Available*
  • [empty] = Indicates an unobserved value
Date modified: